Location: Emory University Observatory
(33.7903°N, 84.3267°W)
Time: 09:42:23
(UTC-04:00)

Vanguard 2 - Visible Passes

Search period start: 21 October 2017 00:00
Search period end: 31 October 2017 00:00
Orbit: 554 x 2939 km, 32.9° (Epoch: 20 October)

Date Brightness Start Highest point End Pass type
(mag) Time Alt. Az. Time Alt. Az. Time Alt. Az.
21 Oct 12.1 04:54:51 10° SSE 04:58:52 11° SE 05:02:47 10° SE visible
21 Oct 11.4 06:55:18 10° SSW 07:10:13 35° SSE 07:21:58 10° E visible
22 Oct 11.9 05:07:09 10° S 05:17:01 17° SE 05:26:15 10° ESE visible
22 Oct 11.1 07:12:22 10° SW 07:28:26 44° SSE 07:40:43 10° E visible
23 Oct 11.7 05:22:23 10° S 05:35:07 25° SE 05:46:42 10° E visible
24 Oct 11.4 05:38:38 10° SSW 05:53:11 32° SE 06:06:12 10° E visible
25 Oct 11.8 03:52:54 10° SSE 04:00:13 14° SE 04:07:36 10° ESE visible
25 Oct 11.2 05:55:27 10° SSW 06:11:16 41° SSE 06:25:11 10° E visible
26 Oct 11.7 04:07:07 10° S 04:18:08 21° SE 04:29:16 10° E visible
26 Oct 10.9 06:12:42 10° SW 06:29:24 50° SSE 06:43:51 10° E visible
27 Oct 11.4 04:24:37 14° S 04:36:01 28° SE 04:49:19 10° E visible
27 Oct 10.7 06:30:17 10° SW 06:47:35 59° SSE 07:02:20 10° E visible
28 Oct 11.2 04:42:43 18° SSW 04:53:55 36° SE 05:08:37 10° E visible
28 Oct 10.6 06:48:09 10° SW 07:05:52 67° SSE 07:20:43 10° E visible
29 Oct 11.6 02:59:12 15° SE 03:01:24 16° SE 03:10:04 10° ESE visible
29 Oct 10.9 05:00:42 22° SSW 05:11:53 45° SE 05:27:31 10° E visible
29 Oct 10.5 07:06:15 10° WSW 07:24:13 75° SSE 07:39:03 10° E visible
30 Oct 11.3 03:17:04 22° SE 03:19:06 23° SE 03:31:07 10° E visible
30 Oct 10.7 05:18:33 24° SSW 05:29:57 54° SSE 05:46:09 10° E visible
30 Oct 10.5 07:24:31 10° WSW 07:42:39 81° SSE 07:57:22 10° E visible
